Location: Le Castellard
(44.1862°N, 6.1301°E)
Time: 16:35:43
(UTC+00:00)

Cosmos 1606 Rocket - Pass Details

Date: 18 January 2020
Orbit: 602 x 633 km, 82.5° (Epoch: 20 February)

Event Time Altitude Azimuth Distance (km) Brightness Sun altitude
Rises 06:18:12 0° 211° (SSW) 2,913 6.9 -8.7°
Reaches altitude 10° 06:20:37 10° 221° (SW) 2,007 6.0 -8.3°
Maximum altitude 06:24:37 32° 285° (WNW) 1,075 4.3 -7.6°
Drops below altitude 10° 06:28:39 10° 350° (N) 2,008 5.9 -6.9°
Sets 06:31:05 0° 0° (N) 2,915 6.8 -6.5°
